This is the latest recevied weather packets stored in our database for station/object CALDNA-WX. If no packets are shown the sender has not sent any weather packets the latest 1 day(s).
| Time | Temp. | Humidity | Pressure | Rain* | Wind** | Luminosity | Snow |
|---|---|---|---|---|---|---|---|
| 1778013921 | 12.22° C | 38% | 982.3 hPa | 0 mm | 6.71 m/s, 280° | - | - |
| 1778013042 | 12.22° C | 36% | 981.3 hPa | 0 mm | 6.71 m/s, 277° | - | - |
| 1778012121 | 12.22° C | 36% | 981.3 hPa | 0 mm | 6.71 m/s, 276° | - | - |
| 1778011248 | 12.22° C | 36% | 981.3 hPa | 0 mm | 6.71 m/s, 272° | - | - |
| 1778010321 | 12.22° C | 32% | 981.2 hPa | 0 mm | 7.15 m/s, 269° | - | - |
| 1778009438 | 12.78° C | 32% | 981.2 hPa | 0 mm | 6.71 m/s, 274° | - | - |
| 1778008524 | 12.22° C | 32% | 981.2 hPa | 0 mm | 6.71 m/s, 270° | - | - |
| 1778007646 | 12.22° C | 32% | 981.2 hPa | 0 mm | 6.71 m/s, 272° | - | - |
| 1778006724 | 12.22° C | 35% | 981.9 hPa | 0 mm | 7.15 m/s, 272° | - | - |
| 1778005845 | 12.22° C | 37% | 981.2 hPa | 0 mm | 7.15 m/s, 275° | - | - |
| 1778004924 | 12.78° C | 37% | 981.2 hPa | 0 mm | 6.71 m/s, 272° | - | - |
| 1778004051 | 12.78° C | 37% | 981.2 hPa | 0 mm | 6.71 m/s, 270° | - | - |
| 1778003123 | 12.78° C | 34% | 980.4 hPa | 0 mm | 6.71 m/s, 272° | - | - |
| 1778002239 | 12.78° C | 34% | 979.6 hPa | 0 mm | 6.26 m/s, 273° | - | - |
| 1778001324 | 12.22° C | 34% | 979.6 hPa | 0 mm | 6.26 m/s, 272° | - | - |
| 1778000449 | 12.78° C | 34% | 979.6 hPa | 0 mm | 6.26 m/s, 276° | - | - |
| 1777999524 | 12.22° C | 34% | 980.4 hPa | 0 mm | 6.26 m/s, 280° | - | - |
| 1777998643 | 12.22° C | 36% | 978.6 hPa | 0 mm | 6.26 m/s, 278° | - | - |
| 1777997724 | 12.22° C | 36% | 978.6 hPa | 0 mm | 5.81 m/s, 274° | - | - |
| 1777996852 | 11.67° C | 36% | 978.6 hPa | 0 mm | 5.36 m/s, 277° | - | - |
| 1777995921 | 11.67° C | 36% | 980.6 hPa | 0 mm | 5.81 m/s, 270° | - | - |
| 1777995045 | 11.67° C | 35% | 979.5 hPa | 0 mm | 6.26 m/s, 269° | - | - |
| 1777994124 | 11.67° C | 35% | 979.4 hPa | 0 mm | 6.26 m/s, 274° | - | - |
| 1777993255 | 11.11° C | 35% | 979.4 hPa | 0 mm | 6.26 m/s, 279° | - | - |
| 1777992324 | 11.11° C | 55% | 979.4 hPa | 0 mm | 6.26 m/s, 275° | - | - |
* Rain latest hour (hover to see other rain measurements)
** Current wind speed in m/s (hover to see current wind gust speed)